User: anonymous   Login
Location: South Tamworth Observatory
(43.8246°N, 71.3026°W)
Time: 07:46:50
(UTC-04:00)
Language:

Cosmos 2208 Rocket - Orbit

View from above orbital plane
View from above orbital plane
View from above satellite
View from above satellite

Ground track
Ground track

The orbit data is extracted from the following two-line orbital elements,

1 22081U 92053B   15153.85210777  .00000126  00000-0  54855-4 0  9994
2 22081 074.0446 359.1445 0035687 152.3443 207.9617 14.33236948192054
Epoch (UTC): 02 June 2015 20:27:02
Eccentricity: 0.0035687
inclination: 74.0446°
perigee height: 755 km
apogee height: 806 km
right ascension of ascending node: 359.1445°
argument of perigee: 152.3443°
revolutions per day: 14.33236948
mean anomaly at epoch: 207.9617°
orbit number at epoch: 19205

The dashed part of the orbit path shows where the satellite is in the earth's shadow,  

DLR